Location: *
(40.9167°N, 9.5000°E)
Time: 08:49:56
(UTC+00:00)

SPOT 5 - Pass Details

Date: 09 April 2020
Orbit: 624 x 814 km, 98.3° (Epoch: 03 June)

Event Time Altitude Azimuth Distance (km) Brightness Sun altitude
Exits shadow 20:31:35 23° 26° (NNE) 1,341 4.4 -27.2°
Drops below altitude 10° 20:33:35 10° 6° (N) 2,004 5.6 -27.5°
Sets 20:35:56 0° 357° (N) 2,919 6.6 -27.8°
